{"data":{"norad_id":64740,"epoch":"2026-05-25T02:07:48.868320Z","epoch_age_seconds":57449,"freshness":"FRESH","line1":"1 64740U 25144S   26145.08876005  .00013886  00000+0  42125-3 0  9991","line2":"2 64740  53.1589 183.0002 0001179  85.4745 274.6392 15.34406624 51452","mean_motion":15.34406624,"eccentricity":0.0001179,"inclination_deg":53.1589,"raan_deg":183.0002,"arg_perigee_deg":85.4745,"mean_anomaly_deg":274.6392,"bstar":0.00042125,"rev_number":5145,"period_min":93.847352942606,"perigee_km":461.87701961087,"apogee_km":463.49008509711,"semimajor_km":6840.820552354,"source":"CELESTRAK","updated_at":"2026-05-25T13:38:20.547930Z"}}